User: anonymous   Login
Location: Unspecified
(0.0000°N, 0.0000°E)
Time: 22:26:51
(UTC+00:00)
Language:

STARLINK-11252 [DTC] - Orbit

View from above orbital plane
View from above orbital plane
View from above satellite
View from above satellite

Ground track
Ground track

The orbit is defined by the following mean orbital elements,

1 61051U          26145.43810473 +.00000000 +00000-0 +38427-4 0 00002
2 61051  53.1554 292.8850 0000986  74.1057 286.0069 15.69722068    06
Epoch (UTC): 25 May 2026 10:30:52
Eccentricity: 0.0000986
inclination: 53.1554°
perigee height: 359 km
apogee height: 360 km
right ascension of ascending node: 292.8850°
argument of perigee: 74.1057°
revolutions per day: 15.69722068
mean anomaly at epoch: 286.0069°

The dashed part of the orbit path shows where the satellite is in the earth's shadow,  

DLR